Location: Bartshausen
(51.8454°N, 9.8167°E)
Time: 14:15:03
(UTC+00:00)

Cosmos 2016 Rocket - Visible Passes

Search period start: 14 February 2026 00:00
Search period end: 24 February 2026 00:00
Orbit: 946 x 1000 km, 83.0° (Epoch: 13 February)

Date Brightness Start Highest point End Pass type
(mag) Time Alt. Az. Time Alt. Az. Time Alt. Az.
14 Feb 5.8 05:06:57 10° SSE 05:12:19 34° E 05:17:45 10° NNE visible
14 Feb 5.2 17:40:42 10° NNW 17:46:37 46° W 17:52:34 10° SSW visible
15 Feb 7.3 03:52:14 10° ENE 03:52:45 10° ENE 03:53:15 10° ENE visible
15 Feb 4.8 05:30:44 10° SSE 05:36:39 55° E 05:42:38 10° NNE visible
15 Feb 6.1 18:05:40 10° NNW 18:10:54 29° W 18:16:10 10° SW visible
16 Feb 6.8 04:12:50 10° ESE 04:16:42 18° ENE 04:20:36 10° NE visible
16 Feb 4.1 05:55:02 10° S 06:01:08 88° E 06:07:20 10° N visible
16 Feb 6.9 18:31:03 10° NW 18:35:02 18° WNW 18:39:02 10° WSW visible
17 Feb 6.0 04:35:44 10° SE 04:40:50 29° E 04:45:59 10° NNE visible
17 Feb 5.0 17:09:00 10° NNW 17:15:06 55° W 17:21:13 10° SSW visible
17 Feb 7.4 18:58:04 10° WNW 18:59:01 10° WNW 18:59:56 10° W visible
18 Feb 5.1 04:59:19 10° SSE 05:05:06 47° E 05:10:57 10° NNE visible
18 Feb 5.9 17:33:53 10° NNW 17:39:26 34° W 17:45:00 10° SSW visible
19 Feb 6.9 03:42:05 10° ESE 03:45:18 15° ENE 03:48:32 10° NE visible
19 Feb 4.2 05:23:27 10° S 05:29:32 76° E 05:35:43 10° NNE visible
19 Feb 6.7 17:59:05 10° NNW 18:03:37 21° W 18:08:10 10° SW visible
20 Feb 6.3 04:04:36 10° SE 04:09:22 24° E 04:14:10 10° NNE visible
20 Feb 4.0 05:48:03 10° SSW 05:54:07 69° WNW 06:00:19 10° N visible
20 Feb 7.1 18:25:03 10° NW 18:27:38 13° WNW 18:30:14 10° W visible
21 Feb 5.4 04:27:59 10° SSE 04:33:35 39° E 04:39:15 10° NNE visible
22 Feb 7.0 03:11:36 10° E 03:13:54 12° ENE 03:16:14 10° NE visible
22 Feb 4.5 04:51:56 10° S 04:57:57 64° E 05:04:05 10° NNE visible
22 Feb 6.6 17:27:13 10° NNW 17:32:11 25° W 17:37:11 10° SW visible
23 Feb 6.4 03:33:34 10° SE 03:37:55 21° E 03:42:19 10° NE visible
23 Feb 3.9 05:16:21 10° SSW 05:22:30 81° WNW 05:28:44 10° N visible
23 Feb 7.0 17:52:48 10° NW 17:56:16 15° WNW 17:59:46 10° WSW visible
